Flag for Germany Weather past 2 weeks in Schweinfurt, Bavaria, Germany

Now
60 °F

Clear.


Feels Like: 60 °F
Forecast: 62 / 73 °F
Wind: No wind

Location: Wuerzburg

Current Time: Jul 7, 2015 at 4:56:32 AM

Latest Report: Jul 7, 2015 at 4:00 AM


Visibility: 25 mi

Pressure: 30.06 "Hg

Humidity: 72%

Dew point: 51 °F

Location of SchweinfurtLocation

Historic Weather in Schweinfurt — Graph

°F

Schweinfurt temperature yesterday

Maximum temperature yesterday: 84 °F (at 6:00 PM)
Minimum temperature yesterday: 67 °F (at 7:00 AM)
Average temperature yesterday: 75 °F

Past Weeks' High & Low Weather Summary

 TemperatureHumidityPressure
High100 °F (Jul 5, 5:00 PM)98% (Jun 22, 4:00 AM)30.26 "Hg (Jun 22, 4:00 AM)
Low48 °F (Jun 23, 6:00 AM)21% (Jul 5, 5:00 PM)29.72 "Hg (Jun 23, 1:00 AM)
Average71 °F59%30.10 "Hg
* Reported Jun 22 3:00 AM — Jul 7 3:00 AM, Schweinfurt, Weather by CustomWeather, © 2015

Note: Actual official high and low records may vary slightly from our data, if they occured in-between our weather recording intervals... More about our weather records

Advertising

Schweinfurt weather history for previous 24 hours

 ConditionsComfort  
Time TempWeatherWind HumidityBarometerVisibility
3:00 AM
Tue, Jul 7
62 °FClear.No wind64%30.07 "Hg25 mi
2:00 AM64 °FClear.1 mph63%30.08 "Hg25 mi
1:00 AM65 °FClear.No wind62%30.09 "Hg25 mi
12:00 AM69 °FClear.No wind49%30.09 "Hg28 mi
11:00 PM
Mon, Jul 6
72 °FClear.No wind41%30.08 "Hg28 mi
10:00 PM75 °FClear.1 mph36%30.08 "Hg28 mi
9:00 PM79 °FSunny.2 mph33%30.07 "Hg28 mi
8:00 PM82 °FSunny.2 mph33%30.07 "Hg28 mi
7:00 PM83 °FSunny.3 mph30%30.07 "Hg28 mi
6:00 PM84 °FPassing clouds.2 mph30%30.09 "Hg25 mi
5:00 PM83 °FPassing clouds.3 mph28%30.10 "Hg31 mi
4:00 PM82 °FPassing clouds.3 mph28%30.12 "Hg31 mi
3:00 PM81 °FSunny.6 mph36%30.13 "Hg31 mi
2:00 PM79 °FSunny.5 mph38%30.15 "Hg31 mi
1:00 PM76 °FPassing clouds.5 mph44%30.16 "Hg31 mi
12:00 PM74 °FPassing clouds.5 mph51%30.18 "Hg37 mi
11:00 AM72 °FScattered clouds.5 mph52%30.19 "Hg28 mi
10:00 AM71 °FScattered clouds.5 mph63%30.20 "Hg28 mi
9:00 AM69 °FPassing clouds.3 mph63%30.19 "Hg22 mi
8:00 AM67 °FScattered clouds.3 mph72%30.18 "Hg31 mi
7:00 AM67 °FPartly sunny.5 mph79%30.16 "Hg19 mi
5:00 AM68 °FOvercast.5 mph88%30.11 "Hg9 mi
4:00 AM70 °FThunderstorms. Overcast.5 mph86%30.08 "Hg9 mi
Weather by CustomWeather, © 2015

See weather overviewHow to use our weather pages